DW3823 Weather Reports


Display with metric or nautical units.
time (UTC)temp
F
wind
direction
speed
MPH
gust
MPH
rain 1hr
in
rain 24hr
in
rain mn
in
humidity
%
barometer
mb
20260504014025 53 231 0.0 1.0 0.00 0.01 0.01 65 1016.6
20260504013525 54 231 0.0 2.0 0.00 0.01 0.01 60 1016.4
20260504013025 55 231 0.0 2.0 0.00 0.01 0.01 58 1016.2
20260504012526 54 231 0.0 1.0 0.00 0.01 0.01 59 1016.2
20260504012024 53 231 0.0 0.0 0.00 0.01 0.01 63 1016.3
20260504011526 53 231 0.0 0.0 0.00 0.01 0.01 63 1016.4
20260504011024 55 231 0.0 1.0 0.00 0.01 0.01 59 1016.4
20260504010523 55 231 0.0 1.0 0.00 0.01 0.01 58 1016.2
20260504010026 55 231 0.0 1.0 0.00 0.01 0.01 58 1016.4
20260504005524 55 231 0.0 2.0 0.00 0.04 0.01 56 1016.4
20260504005028 57 231 0.0 4.0 0.00 0.04 0.01 55 1016.4
20260504004524 57 238 0.0 3.0 0.00 0.04 0.01 53 1016.4
20260504004024 57 272 0.0 2.0 0.00 0.04 0.01 54 1016.4
20260504003522 57 275 0.0 2.0 0.00 0.04 0.01 53 1016.4
20260504003030 58 275 1.0 4.0 0.00 0.04 0.01 50 1016.4
20260504002522 59 204 0.0 3.0 0.00 0.04 0.01 49 1016.3
20260504002022 59 205 0.0 3.0 0.00 0.04 0.01 48 1016.5
20260504001521 59 203 0.0 3.0 0.00 0.04 0.01 47 1016.5
20260504001021 59 209 1.0 3.0 0.00 0.04 0.01 46 1016.7
20260504000519 60 216 1.0 2.0 0.00 0.04 0.01 47 1016.8
20260504000018 60 206 1.0 5.0 0.00 0.04 0.01 46 1016.9
20260503235517 60 169 0.0 5.0 0.00 0.05 0.01 46 1017.0
20260503235018 60 166 2.0 3.0 0.00 0.05 0.01 45 1017.1
20260503234517 60 158 0.0 3.0 0.00 0.05 0.01 44 1017.2
20260503234017 60 155 0.0 3.0 0.00 0.05 0.01 44 1017.2
20260503233517 61 110 1.0 3.0 0.00 0.05 0.01 43 1017.2
20260503233015 61 229 1.0 6.0 0.00 0.05 0.01 44 1017.2
20260503232516 62 188 2.0 6.0 0.00 0.05 0.01 41 1017.2
20260503232015 62 234 2.0 7.0 0.00 0.05 0.01 41 1017.2
20260503231517 62 304 0.0 4.0 0.00 0.05 0.01 40 1017.3
20260503231016 62 219 0.0 6.0 0.00 0.05 0.01 39 1017.3
20260503230517 63 274 1.0 6.0 0.00 0.05 0.01 40 1017.3
20260503230017 63 202 1.0 6.0 0.00 0.05 0.01 38 1017.2
20260503225515 63 289 2.0 6.0 0.00 0.05 0.01 38 1017.3
20260503225016 63 182 2.0 6.0 0.00 0.05 0.01 40 1017.4
20260503224516 63 283 1.0 6.0 0.00 0.05 0.01 41 1017.4
20260503224011 63 244 2.0 9.0 0.00 0.05 0.01 37 1017.5
20260503223514 64 174 2.0 9.0 0.00 0.05 0.01 37 1017.5
20260503223011 64 251 2.0 5.0 0.00 0.05 0.01 37 1017.6
20260503222511 64 17 2.0 7.0 0.00 0.05 0.01 41 1017.5
20260503222009 64 315 3.0 7.0 0.00 0.05 0.01 39 1017.7
20260503221511 64 266 3.0 8.0 0.00 0.05 0.01 37 1017.8
20260503221011 64 166 2.0 8.0 0.00 0.05 0.01 38 1017.8
20260503220509 64 165 3.0 10.0 0.00 0.05 0.01 40 1017.9
20260503220008 64 270 2.0 8.0 0.00 0.05 0.01 40 1017.8
20260503215510 64 219 2.0 8.0 0.00 0.05 0.01 39 1017.8
20260503215009 64 224 2.0 7.0 0.00 0.05 0.01 39 1018.0
20260503214508 65 233 2.0 7.0 0.00 0.05 0.01 41 1018.1
20260503214007 64 226 2.0 4.0 0.00 0.05 0.01 42 1018.1
20260503213506 64 265 1.0 6.0 0.00 0.05 0.01 44 1018.2
20260503213005 64 341 2.0 7.0 0.00 0.05 0.01 40 1018.3
20260503212504 65 170 3.0 9.0 0.00 0.05 0.01 40 1018.3
20260503212004 65 148 3.0 9.0 0.00 0.05 0.01 41 1018.4
20260503211604 64 316 1.0 7.0 0.00 0.05 0.01 41 1018.4
20260503211002 64 264 3.0 8.0 0.00 0.05 0.01 43 1018.5
20260503210504 64 240 4.0 8.0 0.00 0.05 0.01 40 1018.5
20260503210002 64 304 2.0 9.0 0.00 0.05 0.01 38 1018.6
20260503205501 64 307 3.0 9.0 0.00 0.05 0.01 40 1018.6
20260503205101 65 54 3.0 8.0 0.00 0.05 0.01 41 1018.6
20260503204605 64 302 2.0 7.0 0.00 0.05 0.01 44 1018.7
20260503204058 64 242 3.0 11.0 0.00 0.05 0.01 39 1018.8
20260503203557 64 157 3.0 7.0 0.00 0.05 0.01 40 1018.8
20260503203058 64 148 2.0 7.0 0.00 0.05 0.01 41 1019.0
20260503202558 64 308 2.0 6.0 0.00 0.05 0.01 41 1019.1
20260503202055 63 338 1.0 10.0 0.00 0.05 0.01 43 1019.1
20260503201554 63 203 3.0 10.0 0.00 0.05 0.01 41 1019.3
20260503201053 63 242 3.0 10.0 0.00 0.05 0.01 42 1019.3
20260503200553 63 291 2.0 8.0 0.00 0.05 0.01 44 1019.4
20260503200056 63 243 2.0 7.0 0.00 0.05 0.01 46 1019.5
20260503195551 63 194 2.0 7.0 0.00 0.05 0.01 47 1019.5
20260503195050 62 140 2.0 8.0 0.00 0.05 0.01 48 1019.7
20260503194551 62 114 3.0 8.0 0.00 0.05 0.01 44 1019.8
20260503194050 63 160 3.0 15.0 0.00 0.05 0.01 45 1019.9
20260503193550 63 141 2.0 15.0 0.00 0.05 0.01 49 1020.0
20260503193050 63 150 2.0 8.0 0.00 0.05 0.01 46 1020.0
20260503192548 63 108 2.0 7.0 0.00 0.05 0.01 57 1020.0
20260503192048 62 187 2.0 7.0 0.00 0.05 0.01 54 1020.1
20260503191548 62 252 1.0 7.0 0.00 0.05 0.01 50 1020.1
20260503191048 62 272 1.0 7.0 0.00 0.05 0.01 48 1020.3
20260503190550 62 254 1.0 9.0 0.00 0.05 0.01 50 1020.5
20260503190047 62 182 2.0 6.0 0.00 0.05 0.01 51 1020.5
20260503185546 61 278 2.0 7.0 0.00 0.05 0.01 51 1020.5
20260503185050 61 270 2.0 10.0 0.00 0.05 0.01 51 1020.6
20260503184555 61 157 4.0 10.0 0.00 0.05 0.01 50 1020.6
20260503184046 61 247 3.0 7.0 0.00 0.05 0.01 53 1020.7
20260503183546 61 303 1.0 10.0 0.00 0.05 0.01 51 1020.7
20260503183045 61 335 3.0 10.0 0.00 0.05 0.01 54 1020.8
20260503182547 60 217 2.0 8.0 0.00 0.05 0.01 54 1020.9
20260503182043 59 111 3.0 7.0 0.00 0.05 0.01 49 1021.1
20260503181543 60 339 2.0 8.0 0.00 0.05 0.01 53 1021.3
20260503181043 59 277 3.0 8.0 0.00 0.05 0.01 50 1021.3
20260503180546 60 289 3.0 8.0 0.00 0.05 0.01 51 1021.2
20260503180051 59 229 1.0 9.0 0.00 0.05 0.01 52 1021.3
20260503175541 60 267 2.0 9.0 0.00 0.05 0.01 51 1021.4
20260503175040 59 240 3.0 7.0 0.00 0.05 0.01 53 1021.4
20260503174545 59 159 3.0 9.0 0.00 0.05 0.01 54 1021.5
20260503174043 59 292 4.0 9.0 0.00 0.05 0.01 54 1021.7
20260503173538 59 355 3.0 8.0 0.00 0.05 0.01 57 1021.6
20260503173047 59 201 2.0 7.0 0.00 0.05 0.01 55 1021.7
20260503172538 58 287 2.0 6.0 0.00 0.05 0.01 56 1021.7
20260503172036 58 146 3.0 9.0 0.00 0.05 0.01 56 1021.8
20260503171536 57 159 4.0 7.0 0.00 0.05 0.01 57 1021.7
20260503171037 57 271 2.0 8.0 0.00 0.05 0.01 54 1021.9
20260503170536 58 227 3.0 8.0 0.00 0.05 0.01 53 1022.0
20260503150517 52 167 3.0 7.0 0.00 0.05 0.01 73 1022.9
20260503131054 44 165 1.0 5.0 0.00 0.05 0.01 96 1022.7
20260503130555 44 136 0.0 3.0 0.00 0.05 0.01 96 1022.7
20260503110532 41 204 0.0 1.0 0.00 0.05 0.01 96 1021.1
20260503081519 40 55 0.0 0.0 0.00 0.04 0.00 96 1020.8
20260503081015 40 55 0.0 0.0 0.00 0.04 0.00 96 1020.8
20260503080516 40 55 0.0 0.0 0.00 0.04 0.00 96 1020.7
20260503072512 40 55 0.0 0.0 0.00 0.04 0.00 96 1020.3
20260503072015 39 55 0.0 0.0 0.00 0.04 0.00 96 1020.3
20260503071511 39 55 0.0 0.0 0.00 0.04 0.00 96 1020.1
20260503071009 39 55 0.0 0.0 0.00 0.04 0.00 96 1020.1
20260503070511 39 55 0.0 0.0 0.00 0.04 0.00 95 1020.1
20260503055002 40 55 0.0 0.0 0.00 0.04 0.00 95 1020.1
20260503054502 40 55 0.0 0.0 0.00 0.04 0.00 95 1020.1
20260503054003 40 55 0.0 0.0 0.00 0.04 0.00 95 1020.2
20260503053600 41 55 0.0 0.0 0.00 0.04 0.00 95 1020.1
20260503053058 41 55 0.0 0.0 0.00 0.04 0.00 95 1020.0
20260503052558 41 55 0.0 0.0 0.00 0.04 0.00 95 1019.9
20260503052057 41 55 0.0 0.0 0.00 0.04 0.00 95 1020.0
20260503051602 41 55 0.0 0.0 0.00 0.04 0.00 95 1020.0
20260503051056 41 55 0.0 0.0 0.00 0.04 0.00 95 1019.9
20260503050554 42 55 0.0 0.0 0.00 0.04 0.00 95 1019.8
20260503050054 42 55 0.0 0.0 0.00 0.04 0.00 95 1019.8
20260503045554 42 55 0.0 0.0 0.00 0.04 0.04 95 1019.7
20260503045053 42 55 0.0 0.0 0.00 0.04 0.04 94 1019.7
20260503044553 42 55 0.0 0.0 0.00 0.04 0.04 94 1019.7
20260503044055 42 55 0.0 1.0 0.00 0.04 0.04 94 1019.8
20260503043552 42 55 0.0 1.0 0.00 0.04 0.04 94 1019.7
20260503043053 42 55 0.0 0.0 0.00 0.04 0.04 94 1019.7
20260503042552 43 55 0.0 0.0 0.00 0.04 0.04 94 1019.7
20260503042051 43 55 0.0 0.0 0.00 0.04 0.04 93 1019.6
20260503041551 43 55 0.0 0.0 0.00 0.04 0.04 93 1019.6
20260503041050 43 55 0.0 0.0 0.00 0.04 0.04 93 1019.5
20260503040550 43 55 0.0 0.0 0.00 0.04 0.04 93 1019.4
20260503040057 44 55 0.0 0.0 0.00 0.04 0.04 93 1019.4
20260503035550 44 55 0.0 0.0 0.00 0.04 0.04 93 1019.4
20260503035051 44 55 0.0 0.0 0.00 0.04 0.04 93 1019.4
20260503034550 44 55 0.0 0.0 0.00 0.04 0.04 93 1019.3
20260503034048 45 55 0.0 0.0 0.00 0.04 0.04 93 1019.3
20260503033547 45 55 0.0 0.0 0.00 0.04 0.04 92 1019.3
20260503033050 45 55 0.0 0.0 0.00 0.04 0.04 92 1019.3
20260503032548 45 55 0.0 0.0 0.00 0.04 0.04 92 1019.2
20260503032049 45 55 0.0 0.0 0.00 0.04 0.04 92 1019.2
20260503031547 45 55 0.0 0.0 0.00 0.04 0.04 92 1019.2
20260503031047 45 55 0.0 0.0 0.00 0.04 0.04 92 1019.2
20260503030547 45 55 0.0 0.0 0.00 0.04 0.04 92 1019.2
20260503030052 45 55 0.0 0.0 0.00 0.04 0.04 92 1019.1
20260503025548 45 55 0.0 1.0 0.00 0.04 0.04 91 1019.2
20260503025051 45 55 0.0 1.0 0.00 0.04 0.04 91 1019.2
20260503024545 45 55 0.0 0.0 0.00 0.04 0.04 91 1019.1
20260503024044 45 55 0.0 1.0 0.00 0.04 0.04 91 1019.1
20260503023544 45 55 0.0 1.0 0.00 0.04 0.04 91 1019.0
20260503023050 45 55 0.0 1.0 0.00 0.04 0.04 91 1019.1
20260503022543 45 55 0.0 1.0 0.00 0.04 0.04 91 1019.0
20260503022043 45 55 0.0 1.0 0.00 0.04 0.04 91 1019.0
20260503021551 45 55 0.0 1.0 0.00 0.04 0.04 91 1019.0
20260503021043 45 55 0.0 0.0 0.00 0.04 0.04 90 1018.9
20260503020543 45 55 0.0 0.0 0.00 0.04 0.04 90 1018.8
20260503020049 45 55 0.0 2.0 0.00 0.04 0.04 90 1018.8
20260503015541 45 55 0.0 3.0 0.00 0.04 0.04 90 1018.7
20260503015041 45 73 0.0 3.0 0.00 0.04 0.04 90 1018.7
20260503014544 45 92 0.0 1.0 0.00 0.04 0.04 90 1018.7